When you browse on this site, cookies collect data to enhance your experience and personalize the content and advertising you see.
Visit our Privacy Policy to learn more. By continuing to use the site, you agree to this use of cookies and data.
  • In Switzerland
  • List of Countries
  • For 7 days
  • Water Temperature
  • Weather Map
  • Weather Widgets
  • user-avatar
    Login

    Hourly Weather Plav'ya

    Today, 25 August, Sunday

    Time Temperature Precipitation Wind Pressure Humidity
    00:00 +20°C° 0 mm 1 mps 707 mmHg 91%
    01:00 +20°C° 0 mm 1 mps 707 mmHg 88%
    02:00 +20°C° 0 mm 1 mps 707 mmHg 86%
    03:00 +20°C° 0 mm 1 mps 707 mmHg 85%
    04:00 +20°C° 0 mm 1 mps 707 mmHg 83%
    05:00 +20°C° 0 mm 1 mps 707 mmHg 83%
    06:00 +19°C° 0 mm 1 mps 707 mmHg 82%
    07:00 +20°C° 0 mm 1 mps 707 mmHg 80%
    08:00 +20°C° 0 mm 1 mps 708 mmHg 87%
    09:00 +22°C° 0 mm 1 mps 708 mmHg 87%
    10:00 +23°C° 0 mm 1 mps 709 mmHg 86%
    11:00 +24°C° 0 mm 1 mps 709 mmHg 83%
    12:00 +25°C° 0 mm 1 mps 709 mmHg 81%
    13:00 +25°C° 0 mm 3 mps 709 mmHg 86%
    14:00 +25°C° 0 mm 3 mps 708 mmHg 85%
    15:00 +25°C° 0 mm 3 mps 708 mmHg 87%
    16:00 +25°C° 0.1 mm 3 mps 708 mmHg 86%
    17:00 +25°C° 0 mm 4 mps 707 mmHg 88%
    18:00 +23°C° 0 mm 4 mps 707 mmHg 92%
    19:00 +22°C° 0 mm 3 mps 707 mmHg 97%
    20:00 +21°C° 0 mm 2 mps 707 mmHg 98%
    21:00 +20°C° 0 mm 2 mps 708 mmHg 98%
    22:00 +20°C° 0 mm 2 mps 708 mmHg 99%
    23:00 +21°C° 0 mm 1 mps 708 mmHg 97%

    Tomorrow, 26 August, Monday

    Time Temperature Precipitation Wind Pressure Humidity
    00:00 +20°C° 0 mm 1 mps 707 mmHg 94%
    01:00 +20°C° 0 mm 1 mps 707 mmHg 92%
    02:00 +20°C° 0 mm 1 mps 707 mmHg 91%
    03:00 +20°C° 0 mm 1 mps 707 mmHg 91%
    04:00 +20°C° 0 mm 1 mps 707 mmHg 90%
    05:00 +19°C° 0 mm 1 mps 707 mmHg 89%
    06:00 +19°C° 0 mm 1 mps 707 mmHg 88%
    07:00 +19°C° 0 mm 1 mps 707 mmHg 87%
    08:00 +20°C° 0 mm 1 mps 707 mmHg 93%
    09:00 +21°C° 0 mm 1 mps 707 mmHg 91%
    10:00 +23°C° 0 mm 1 mps 708 mmHg 89%
    11:00 +24°C° 0 mm 1 mps 708 mmHg 88%
    12:00 +24°C° 0 mm 1 mps 708 mmHg 86%
    13:00 +25°C° 0 mm 2 mps 708 mmHg 91%
    14:00 +25°C° 0 mm 3 mps 707 mmHg 92%
    15:00 +23°C° 0 mm 4 mps 707 mmHg 96%
    16:00 +25°C° 0 mm 4 mps 707 mmHg 95%
    17:00 +25°C° 0 mm 4 mps 706 mmHg 94%
    18:00 +24°C° 0 mm 3 mps 706 mmHg 96%
    19:00 +22°C° 0 mm 3 mps 706 mmHg 100%
    20:00 +21°C° 0 mm 2 mps 706 mmHg 100%
    21:00 +22°C° 0 mm 1 mps 706 mmHg 100%
    22:00 +21°C° 0 mm 1 mps 706 mmHg 97%
    23:00 +21°C° 0 mm 1 mps 706 mmHg 95%

    Day after tomorrow, 27 August, Tuesday

    Time Temperature Precipitation Wind Pressure Humidity
    00:00 +21°C° 0 mm 1 mps 706 mmHg 93%
    01:00 +20°C° 0 mm 1 mps 706 mmHg 92%
    02:00 +20°C° 0 mm 1 mps 706 mmHg 90%
    03:00 +20°C° 0 mm 1 mps 706 mmHg 89%
    04:00 +19°C° 0 mm 1 mps 706 mmHg 89%
    05:00 +18°C° 0 mm 2 mps 706 mmHg 89%
    06:00 +19°C° 0 mm 1 mps 706 mmHg 88%
    07:00 +19°C° 0 mm 1 mps 706 mmHg 89%
    08:00 +20°C° 0 mm 1 mps 706 mmHg 93%
    09:00 +20°C° 0 mm 2 mps 706 mmHg 91%
    10:00 +23°C° 0 mm 2 mps 707 mmHg 88%
    11:00 +24°C° 0 mm 1 mps 707 mmHg 86%
    12:00 +25°C° 0 mm 1 mps 707 mmHg 85%
    13:00 +25°C° 0 mm 1 mps 707 mmHg 87%
    14:00 +25°C° 0 mm 2 mps 707 mmHg 90%
    15:00 +25°C° 0 mm 3 mps 707 mmHg 95%
    16:00 +25°C° 0.1 mm 3 mps 706 mmHg 96%
    17:00 +25°C° 0 mm 3 mps 706 mmHg 96%
    18:00 +24°C° 0 mm 3 mps 706 mmHg 98%
    19:00 +22°C° 0 mm 3 mps 706 mmHg 100%
    20:00 +21°C° 0 mm 2 mps 706 mmHg 100%
    21:00 +21°C° 0 mm 1 mps 706 mmHg 100%
    22:00 +21°C° 0 mm 1 mps 706 mmHg 100%
    23:00 +21°C° 0 mm 1 mps 706 mmHg 97%

    28 August, Wednesday

    Time Temperature Precipitation Wind Pressure Humidity
    00:00 +21°C° 0 mm 1 mps 706 mmHg 96%
    01:00 +19°C° 0 mm 2 mps 705 mmHg 97%
    02:00 +19°C° 0 mm 2 mps 705 mmHg 97%
    03:00 +19°C° 0 mm 2 mps 705 mmHg 97%
    04:00 +18°C° 0 mm 2 mps 705 mmHg 98%
    05:00 +18°C° 0 mm 2 mps 705 mmHg 98%
    06:00 +18°C° 0 mm 2 mps 705 mmHg 98%
    07:00 +18°C° 0 mm 2 mps 705 mmHg 98%
    08:00 +19°C° 0 mm 2 mps 705 mmHg 99%
    09:00 +21°C° 0 mm 3 mps 706 mmHg 96%
    10:00 +22°C° 0 mm 3 mps 706 mmHg 95%
    11:00 +22°C° 0 mm 3 mps 706 mmHg 93%
    12:00 +24°C° 0 mm 3 mps 706 mmHg 91%
    13:00 +25°C° 0 mm 3 mps 706 mmHg 89%
    14:00 +25°C° 0 mm 3 mps 705 mmHg 86%

    29 August, Thursday

    Time Temperature Precipitation Wind Pressure Humidity

    30 August, Friday

    Time Temperature Precipitation Wind Pressure Humidity
    Show more